Location: Winthrop
(48.4780°N, 120.1850°W)
Time: 10:13:59
(UTC-08:00)

A-11 Canister half - Visible Passes

Search period start: 30 January 2023 00:00
Search period end: 09 February 2023 00:00
Orbit: 1525 x 1683 km, 47.3° (Epoch: 30 January)

Date Brightness Start Highest point End Pass type
(mag) Time Alt. Az. Time Alt. Az. Time Alt. Az.
30 Jan 11.4 04:15:25 10° SE 04:16:42 10° ESE 04:17:59 10° ESE visible
30 Jan 10.3 06:11:07 10° SSW 06:19:27 39° SE 06:27:53 10° ENE visible
31 Jan 10.3 05:49:36 10° SSW 05:57:49 37° SE 06:06:09 10° ENE visible
01 Feb 10.3 05:28:04 10° SSW 05:36:11 36° SE 05:44:24 10° ENE visible
02 Feb 10.3 05:06:34 10° SSW 05:14:34 34° SE 05:22:39 10° ENE visible
03 Feb 10.3 04:45:04 10° SSW 04:52:57 33° SE 05:00:54 10° ENE visible
03 Feb 9.4 06:47:39 10° WSW 06:56:50 69° SSE 07:06:12 10° E visible
04 Feb 10.3 04:24:11 12° SSW 04:31:20 31° SE 04:39:08 10° E visible
04 Feb 9.3 06:26:00 10° WSW 06:35:10 68° SSE 06:44:30 10° ENE visible
05 Feb 10.3 04:04:25 17° S 04:09:44 30° SE 04:17:21 10° E visible
05 Feb 9.3 06:04:21 10° SW 06:13:30 66° SSE 06:22:47 10° ENE visible
06 Feb 10.3 03:44:29 22° SSE 03:48:06 28° SE 03:55:35 10° E visible
06 Feb 9.3 05:42:48 10° SW 05:51:50 65° SSE 06:01:05 10° ENE visible
07 Feb 10.2 03:24:24 25° SSE 03:26:30 27° SE 03:33:49 10° E visible
07 Feb 9.3 05:22:44 17° SW 05:30:10 63° SSE 05:39:22 10° ENE visible
08 Feb 10.2 03:04:14 25° SE 03:04:54 26° SE 03:12:01 10° E visible
08 Feb 9.2 05:02:33 24° SW 05:08:30 61° SSE 05:17:39 10° ENE visible
